• Join FlightAware (Why Join?)
  • Login
  • US Flag 
02:12AM EDT


 

Airport Tracker/Info


-or-


 

Live Flight TrackerFlight Track Log ✈ BOE22 ✈ 05-Nov-2013 ✈ KRNT - KPAE

Flight Track Log - Related Links

Times and Time Zones

All times are in EST time to prevent confusion due to time zone crossing. See the BOE22 flight status page for this flight to view local times or setup timezone preferences in your user account.

Time Position Orientation Groundspeed Altitude Reporting Facility
EST Latitude Longitude Course Direction KTS MPH feet Rate Location/Type
04:21PM 47.4722 -122.2111 141° Southeast 165 190 1,800  Level Seattle Center
04:22PM 47.4275 -122.1575 141° Southeast 237 273 3,800 8,220 Climbing Seattle Center
04:24PM 47.5072 -122.1403 North 267 307 28,000 2,880 Climbing Seattle Center
04:25PM 47.4769 -122.2381 245° Southwest 293 337 13,000 -14,760 Descending Seattle Center
04:25PM 47.4736 -122.2456 237° Southwest 290 334 13,000 840 Level Seattle Center
04:26PM 47.4397 -122.3419 243° Southwest 268 308 13,900 1,380 Climbing Seattle Center
04:27PM 47.4131 -122.4586 251° West 298 343 15,900 2,460 Climbing Seattle Center
04:28PM 47.3797 -122.5772 247° West 313 360 18,900 3,000 Climbing Seattle Center
04:29PM 47.3436 -122.7000 247° West 322 371 22,000 2,700 Climbing Seattle Center
04:30PM 47.3006 -122.8242 243° Southwest 335 386 24,400 2,220 Climbing Seattle Center
04:31PM 47.2567 -122.9519 243° Southwest 345 397 26,600 1,740 Climbing Seattle Center
04:32PM 47.2111 -123.0814 243° Southwest 353 406 28,000 1,740 Climbing Seattle Center
04:33PM 47.1714 -123.2208 247° West 365 420 30,200 2,100 Climbing Seattle Center
04:34PM 47.1489 -123.3550 256° West 343 395 32,300 1,320 Climbing Seattle Center
04:35PM 47.1283 -123.4953 258° West 346 398 32,900 660 Climbing Seattle Center
04:36PM 47.0964 -123.6400 252° West 367 422 33,700 1,380 Climbing Seattle Center
04:37PM 47.0672 -123.7839 253° West 370 426 35,800 1,620 Climbing Seattle Center
04:38PM 47.0356 -123.9214 251° West 362 417 37,000 540 Climbing Seattle Center
04:39PM 47.0058 -124.0581 252° West 358 412 37,000  Level Seattle Center
04:40PM 46.9719 -124.2286 254° West 362 417 37,000  Level Seattle Center
04:41PM 46.9433 -124.3717 254° West 364 419 37,000  Level Seattle Center
04:42PM 46.9144 -124.5125 253° West 364 419 37,000  Level Seattle Center
04:44PM 46.8881 -124.6550 255° West 363 418 37,000  Level Seattle Center
04:45PM 46.8606 -124.7994 254° West 366 421 37,000  Level Seattle Center
04:46PM 46.8319 -124.9475 254° West 373 429 37,000  Level Seattle Center
04:47PM 46.7750 -125.0617 234° Southwest 393 452 37,000  Level Seattle Center
04:48PM 46.6508 -125.0211 167° South 476 548 37,000  Level Seattle Center
04:49PM 46.6103 -124.8100 106° East 548 631 37,000  Level Seattle Center
04:50PM 46.6567 -124.6128 71° East 531 611 37,000  Level Seattle Center
04:51PM 46.7111 -124.4172 68° East 526 605 37,000  Level Seattle Center
04:52PM 46.7642 -124.2275 68° East 518 596 37,000  Level Seattle Center
04:53PM 46.8172 -124.0361 68° East 514 592 37,000  Level Seattle Center
04:54PM 46.8825 -123.8078 67° East 510 587 37,000  Level Seattle Center
04:55PM 46.9917 -123.7272 27° Northeast 448 516 37,100  Climbing Seattle Center
04:56PM 47.1017 -123.6922 12° North 410 472 37,000 -660 Descending Seattle Center
04:57PM 47.2114 -123.6553 13° North 406 467 35,800 -1,740 Descending Seattle Center
04:58PM 47.2850 -123.7097 333° Northwest 329 379 33,500 -2,100 Descending Seattle Center
04:59PM 47.3392 -123.8011 311° West 315 362 31,600 -1,680 Descending Seattle Center
05:00PM 47.4128 -123.8667 329° Northwest 308 354 30,200 -1,740 Descending Seattle Center
05:01PM 47.4775 -123.9200 331° Northwest 269 310 28,100 -3,780 Descending Seattle Center
05:02PM 47.5472 -123.9767 331° Northwest 310 357 22,600 -4,260 Descending Seattle Center
05:03PM 47.6278 -124.0461 330° Northwest 335 386 19,500 -3,180 Descending Seattle Center
05:04PM 47.7089 -124.1133 331° Northwest 334 384 16,200 -2,220 Descending Seattle Center
05:05PM 47.7856 -124.1808 329° Northwest 324 373 15,000 -1,140 Descending Seattle Center
05:06PM 47.8664 -124.2489 331° Northwest 295 339 14,000 -540 Descending Seattle Center
05:07PM 47.9308 -124.3047 330° Northwest 279 321 14,000  Level Seattle Center
05:08PM 47.9931 -124.3656 327° Northwest 272 313 14,000  Level Seattle Center
05:09PM 48.0567 -124.4292 326° Northwest 273 314 14,000  Level Seattle Center
05:10PM 48.1192 -124.4936 325° Northwest 274 315 14,000  Level Seattle Center
05:11PM 48.1697 -124.5381 330° Northwest 229 264 14,000  Level Seattle Center
05:12PM 48.2053 -124.5844 319° Northwest 216 249 14,000  Level Seattle Center
05:13PM 48.1506 -124.5794 177° South 218 251 14,000  Level Seattle Center
05:14PM 48.0981 -124.5511 160° South 211 243 14,000  Level Seattle Center
05:15PM 48.0467 -124.5247 161° South 203 234 14,000  Level Seattle Center
05:16PM 47.9967 -124.5053 165° South 194 223 14,000  Level Seattle Center
05:17PM 47.9503 -124.4869 165° South 184 212 14,000  Level Seattle Center
05:18PM 47.8997 -124.4664 165° South 183 211 14,000  Level Seattle Center
05:19PM 47.8397 -124.4467 168° South 202 232 14,000  Level Seattle Center
05:20PM 47.7567 -124.4194 168° South 242 278 14,000  Level Seattle Center
05:21PM 47.6822 -124.3922 166° South 273 314 14,000  Level Seattle Center
05:22PM 47.6208 -124.3736 168° South 235 270 14,100  Climbing Seattle Center
05:23PM 47.5786 -124.3575 166° South 171 197 14,100  Level Seattle Center
05:24PM 47.5328 -124.3436 168° South 166 191 14,100  Level Seattle Center
05:25PM 47.4797 -124.3356 174° South 190 219 14,200  Climbing Seattle Center
05:26PM 47.4233 -124.3269 174° South 201 231 14,100 120 Descending Seattle Center
05:27PM 47.3547 -124.3108 171° South 248 285 14,500 180 Climbing Seattle Center
05:28PM 47.2844 -124.2883 168° South 259 298 14,500 -300 Level Seattle Center
05:29PM 47.2217 -124.2686 168° South 235 270 14,000 -540 Descending Seattle Center
05:30PM 47.2011 -124.1828 109° East 241 277 13,500 -300 Descending Seattle Center
05:31PM 47.1881 -124.0892 102° East 237 273 13,500 -960 Level Seattle Center
05:32PM 47.1717 -123.9872 103° East 247 284 11,600 -1,380 Descending Seattle Center
05:33PM 47.1672 -123.8694 93° East 273 314 10,700 -1,080 Descending Seattle Center
05:34PM 47.2036 -123.7589 64° Northeast 270 311 9,500 -600 Descending Seattle Center
05:35PM 47.2692 -123.7964 339° North 260 299 9,500 480 Level Seattle Center
05:36PM 47.3319 -123.8458 332° Northwest 256 295 10,500 480 Climbing Seattle Center
05:37PM 47.3967 -123.8969 332° Northwest 261 300 10,500  Level Seattle Center
05:38PM 47.4478 -123.9658 318° Northwest 258 297 10,500  Level Seattle Center
05:39PM 47.4969 -124.0447 313° West 259 298 10,500 -1,140 Level Seattle Center
05:40PM 47.5536 -124.1172 319° Northwest 267 307 8,200 -1,140 Descending Seattle Center
05:41PM 47.6183 -124.1683 332° Northwest 269 310 8,300 -360 Climbing Seattle Center
05:42PM 47.6878 -124.1614 North 268 308 7,500 -1,380 Descending Seattle Center
05:43PM 47.7089 -124.2647 287° West 272 313 5,500 -1,500 Descending Seattle Center
05:44PM 47.7075 -124.3711 269° West 265 305 4,500 -960 Descending Seattle Center
05:45PM 47.7356 -124.4525 297° West 250 288 3,600 -420 Descending Seattle Center
05:46PM 47.7892 -124.5108 324° Northwest 243 280 3,700 -60 Climbing Seattle Center
05:47PM 47.8400 -124.5733 320° Northwest 239 275 3,500 -240 Descending Seattle Center
05:48PM 47.8914 -124.6350 321° Northwest 238 274 3,300 -120 Descending Seattle Center
05:49PM 47.9453 -124.6914 325° Northwest 237 273 3,300  Level Seattle Center
05:50PM 48.0064 -124.7139 346° North 239 275 3,300  Level Seattle Center
05:51PM 48.0892 -124.7081 North 246 283 3,300 60 Level Seattle Center
05:52PM 48.1517 -124.7258 349° North 248 285 3,500 120 Climbing Seattle Center
05:54PM 48.1147 -124.7681 217° Southwest 248 285 3,600 120 Climbing Seattle Center
05:55PM 48.0469 -124.7306 160° South 259 298 3,800  Climbing Seattle Center
05:56PM 47.9806 -124.6953 160° South 257 296 3,700 -60 Descending Seattle Center
05:57PM 47.9122 -124.6614 162° South 258 297 3,700  Level Seattle Center
05:58PM 47.8486 -124.6161 154° Southeast 260 299 3,700  Level Seattle Center
05:59PM 47.7883 -124.5558 146° Southeast 262 302 3,700 60 Level Seattle Center
06:00PM 47.7275 -124.5067 151° Southeast 258 297 3,900 300 Climbing Seattle Center
06:01PM 47.6683 -124.4728 159° South 244 281 4,400 240 Climbing Seattle Center
06:02PM 47.6133 -124.4289 152° Southeast 238 274 4,400 420 Level Seattle Center
06:03PM 47.6103 -124.3242 92° East 258 297 5,300 1,080 Climbing Seattle Center
06:04PM 47.6394 -124.2225 67° East 267 307 6,700 1,440 Climbing Seattle Center
06:05PM 47.6769 -124.1011 65° Northeast 269 310 8,300 1,260 Climbing Seattle Center
06:06PM 47.7069 -123.9967 67° East 273 314 9,300 1,020 Climbing Seattle Center
06:07PM 47.7358 -123.8847 69° East 280 322 10,400 1,080 Climbing Seattle Center
06:08PM 47.7628 -123.7628 72° East 294 338 11,500 540 Climbing Seattle Center
06:09PM 47.8014 -123.6239 67° East 361 415 11,500  Level Seattle Center
06:10PM 47.8475 -123.4506 68° East 425 489 11,500  Level Seattle Center
06:11PM 47.8856 -123.3053 69° East 382 440 11,500  Level Seattle Center
06:12PM 47.9222 -123.1761 67° East 343 395 11,500  Level Seattle Center
06:13PM 47.9547 -123.0503 69° East 326 375 11,500  Level Seattle Center
06:14PM 47.9872 -122.9308 68° East 313 360 11,500  Level Seattle Center
06:15PM 48.0167 -122.8150 69° East 299 344 11,500 -120 Level Seattle Center
06:16PM 48.0489 -122.7028 67° East 294 338 11,300 -840 Descending Seattle Center
06:17PM 48.0961 -122.6064 54° Northeast 288 331 9,900 -1,500 Descending Seattle Center
06:17PM 48.1108 -122.5769 53° Northeast 284 327 9,500 -1,440 Descending Seattle Center
06:17PM 48.1194 -122.5586 55° Northeast 282 325 9,300 -1,260 Descending Seattle Center
06:18PM 48.1428 -122.5136 52° Northeast 280 322 8,500 -1,620 Descending Seattle Center
06:18PM 48.1492 -122.4461 82° East 263 303 7,500 -1,800 Descending Seattle Center
06:19PM 48.1517 -122.4067 85° East 262 302 6,700 -2,100 Descending Seattle Center
06:19PM 48.1522 -122.3514 89° East 252 290 5,600 -1,800 Descending Seattle Center
06:20PM 48.1531 -122.3044 88° East 247 284 4,900 -1,200 Descending Seattle Center
06:20PM 48.1506 -122.2561 94° East 230 265 4,400 -900 Descending Seattle Center
06:21PM 48.1372 -122.2208 120° Southeast 227 261 4,000 -840 Descending Seattle Center
06:21PM 48.1100 -122.2356 200° South 195 224 3,600 -900 Descending Seattle Center
06:22PM 48.0881 -122.2550 211° Southwest 197 227 3,100 -600 Descending Seattle Center
06:22PM 48.0625 -122.2853 218° Southwest 197 227 3,000 -120 Descending Seattle Center
06:23PM 48.0422 -122.2883 186° South 186 214 3,000 -540 Level Seattle Center
06:23PM 48.0144 -122.2889 181° South 168 193 2,500 -1,020 Descending Seattle Center
06:24PM 47.9875 -122.2869 177° South 158 182 2,000 -840 Descending Seattle Center
06:24PM 47.9722 -122.2894 186° South 141 162 1,700 -780 Descending Seattle Center
06:25PM 47.9503 -122.2858 174° South 134 154 1,200 -720 Descending Seattle Center
06:25PM 47.9367 -122.2892 189° South 132 152 1,000 -420 Descending Seattle Center
06:26PM 47.9197 -122.2850 171° South 129 148 800 480 Descending Seattle Center
06:27PM 47.8844 -122.2853 180° South 176 203 1,700 1,620 Climbing Seattle Center
06:27PM 47.8689 -122.2850 179° South 169 194 2,500 960 Climbing Seattle Center
06:28PM 47.8203 -122.2422 149° Southeast 236 272 3,000 300 Climbing Seattle Center
06:29PM 47.8686 -122.2047 27° Northeast 229 264 3,100  Climbing Seattle Center
06:29PM 47.8733 -122.2028 15° North 237 273 3,000 -120 Descending Seattle Center
06:30PM 47.9267 -122.2056 358° North 228 262 3,000  Level Seattle Center
06:30PM 47.9367 -122.2039 North 229 264 3,000  Level Seattle Center
06:31PM 47.9978 -122.2056 359° North 230 265 3,000  Level Seattle Center
06:31PM 48.0006 -122.2044 15° North 230 265 3,000 60 Level Seattle Center
06:32PM 48.0625 -122.2058 359° North 228 262 3,100  Climbing Seattle Center
06:32PM 48.0636 -122.2044 40° Northeast 229 264 3,000 -120 Descending Seattle Center
06:33PM 48.0850 -122.2694 296° West 160 184 3,000  Level Seattle Center
06:33PM 48.0878 -122.2667 34° Northeast 183 211 3,000  Level Seattle Center
06:34PM 48.0433 -122.2894 199° South 169 194 3,000  Level Seattle Center
06:34PM 48.0453 -122.2889 11° North 165 190 3,000 -840 Level Seattle Center
06:35PM 47.9939 -122.2872 179° South 164 189 2,100 -840 Descending Seattle Center
06:35PM 47.9994 -122.2875 358° North 163 188 2,200 -780 Climbing Seattle Center
06:36PM 47.9542 -122.2861 179° South 161 185 1,300 -600 Descending Seattle Center
06:37PM 47.9144 -122.2886 182° South 153 176 1,200 660 Descending Seattle Center
06:37PM 47.9025 -122.2856 170° South 162 186 2,000 1,560 Climbing Seattle Center
06:38PM 47.8522 -122.3067 196° South 224 258 3,000 960 Climbing Seattle Center
06:38PM 47.8467 -122.3114 210° Southwest 209 241 3,000 -660 Level Seattle Center
06:39PM 47.7967 -122.3506 208° Southwest 210 242 2,300 -720 Descending Seattle Center
06:39PM 47.7928 -122.3542 212° Southwest 214 246 2,300 -120 Level Seattle Center
06:40PM 47.7417 -122.3975 210° Southwest 210 242 2,200 -120 Descending Seattle Center
06:40PM 47.7417 -122.3956 90° East 209 241 2,200  Level Seattle Center
06:41PM 47.6961 -122.4194 199° South 204 235 2,200 60 Level Seattle Center
06:41PM 47.6914 -122.4181 169° South 191 220 2,300  Climbing Seattle Center
06:42PM 47.6469 -122.4006 165° South 192 221 2,200 -120 Descending Seattle Center
06:42PM 47.6383 -122.3953 158° South 199 229 2,200 -720 Level Seattle Center
06:43PM 47.6000 -122.3639 151° Southeast 168 193 1,500 -840 Descending Seattle Center
06:43PM 47.5964 -122.3603 146° Southeast 177 204 1,400 -840 Descending Seattle Center
06:44PM 47.5664 -122.3364 152° Southeast 134 154 700 -900 Descending Seattle Center
06:44PM 47.5619 -122.3303 137° Southeast 140 161 500 -600 Descending Seattle Center
06:45PM 47.5367 -122.3069 148° Southeast 149 171 100 -420 Descending Seattle Center
06:45PM 47.5342 -122.3053 156° South 139 160 100  Level Seattle Center